Flag for Japan Weather past 2 weeks in Sendai, Japan

Now
30 °F

Partly cloudy.


Feels Like: 30 °F
Forecast: 30 / 37 °F
Wind: 1 mph from North

Location: Sendai Airport

Current Time: Dec 25, 2014 at 11:25:32 PM

Latest Report: Dec 25, 2014 at 9:00 PM


Visibility: N/A

Pressure: 29.95 "Hg

Humidity: 80%

Dew point: 25 °F

Location of SendaiLocation

Historic Weather in Sendai — Graph

°F

Sendai temperature yesterday

Maximum temperature yesterday: 52 °F (at 1:00 PM)
Minimum temperature yesterday: 36 °F (at 6:00 AM)
Average temperature yesterday: 43 °F

Past Weeks' High & Low Weather Summary

 TemperatureHumidityPressure
High57 °F (Dec 11, 1:00 PM)100% (Dec 13, 6:00 PM)30.42 "Hg (Dec 13, 6:00 PM)
Low27 °F (Dec 15, 7:00 AM)30% (Dec 15, 1:00 PM)29.24 "Hg (Dec 16, 9:00 PM)
Average37 °F68%29.90 "Hg
* Reported Dec 10 9:00 PM — Dec 25 9:00 PM, Sendai, Weather by CustomWeather, © 2014

Note: Actual official high and low records may vary slightly from our data, if they occured in-between our weather recording intervals... More about our weather records

Advertising

Sendai weather history for previous 24 hours

 ConditionsComfort  
Time TempWeatherWind HumidityBarometerVisibility
9:00 PM
Dec 25
30 °FPartly cloudy.1 mph80%29.95 "HgN/A
8:00 PM30 °FPartly cloudy.No wind75%29.95 "HgN/A
7:00 PM32 °FPassing clouds.3 mph80%29.95 "HgN/A
6:00 PM32 °FScattered showers. Passing clouds.8 mph80%29.92 "HgN/A
5:00 PM34 °FPassing clouds.13 mph60%29.92 "HgN/A
4:00 PM36 °FPassing clouds.15 mph56%29.89 "HgN/A
3:00 PM36 °FScattered showers. Scattered clouds.23 mph56%29.89 "HgN/A
2:02 PM39 °FPassing clouds.20 mph52%29.86 "HgN/A
2:00 PM39 °FPassing clouds.20 mph52%29.86 "HgN/A
1:00 PM39 °FScattered clouds.21 mph52%29.83 "HgN/A
12:00 PM41 °FScattered clouds.14 mph53%29.83 "HgN/A
11:00 AM41 °FScattered clouds.16 mph53%29.86 "HgN/A
10:00 AM41 °FScattered clouds.20 mph57%29.86 "HgN/A
9:00 AM39 °FScattered clouds.15 mph61%29.86 "HgN/A
8:00 AM36 °FPassing clouds.8 mph81%29.86 "HgN/A
7:00 AM36 °FScattered showers. Scattered clouds.12 mph81%29.86 "HgN/A
6:00 AM32 °FPassing clouds.2 mph93%29.86 "HgN/A
Weather by CustomWeather, © 2014

See weather overviewHow to use our weather pages